TKJ4036 LTAC-LTBJ

Flight info

Callsign TKJ4036
Flight time 1h 3m
Altitude 34000
Route HALIL UT54 KULAR
Aircraft B738/M-SDE2E3FGHIRWXY/LB1

Departure

Time 2026-05-07 16:08
Airport Esenboğa International Airport (LTAC)

Arrival

Time 2026-05-07 17:12
Airport Adnan Menderes International Airport (LTBJ)
Time Latitude Longitude Altitude Speed Heading
2026-05-07 15:40 40.11605 32.99119 3133 ft 0 kts 146°
2026-05-07 15:53 40.11609 32.99116 3134 ft 2 kts 146°
2026-05-07 15:53 40.11625 32.99101 3134 ft 3 kts 143°
2026-05-07 15:53 40.11642 32.99085 3134 ft 3 kts 141°
2026-05-07 15:54 40.11657 32.99068 3134 ft 3 kts 139°
2026-05-07 15:54 40.11672 32.99051 3133 ft 3 kts 137°
2026-05-07 15:54 40.11675 32.99047 3133 ft 0 kts 137°
2026-05-07 15:58 40.11673 32.99052 3133 ft 3 kts 129°
2026-05-07 15:58 40.11678 32.99107 3133 ft 10 kts 63°
2026-05-07 15:59 40.11751 32.99108 3133 ft 15 kts 322°
2026-05-07 15:59 40.11848 32.99043 3133 ft 16 kts 15°
2026-05-07 15:59 40.11937 32.99130 3133 ft 16 kts 36°
2026-05-07 15:59 40.12025 32.99213 3133 ft 15 kts 36°
2026-05-07 16:00 40.12108 32.99292 3133 ft 15 kts 36°
2026-05-07 16:00 40.12188 32.99368 3133 ft 14 kts 37°
2026-05-07 16:00 40.12264 32.99443 3133 ft 13 kts 36°
2026-05-07 16:00 40.12337 32.99513 3133 ft 13 kts 36°
2026-05-07 16:01 40.12408 32.99581 3133 ft 13 kts 36°
2026-05-07 16:01 40.12482 32.99652 3133 ft 15 kts 36°
2026-05-07 16:01 40.12587 32.99753 3133 ft 21 kts 36°
2026-05-07 16:01 40.12708 32.99865 3133 ft 21 kts 37°
2026-05-07 16:02 40.12824 32.99978 3133 ft 20 kts 37°
2026-05-07 16:02 40.12937 33.00085 3133 ft 20 kts 36°
2026-05-07 16:02 40.13046 33.00189 3133 ft 19 kts 36°
2026-05-07 16:02 40.13152 33.00291 3133 ft 19 kts 36°
2026-05-07 16:03 40.13254 33.00389 3134 ft 18 kts 36°
2026-05-07 16:03 40.13353 33.00483 3134 ft 17 kts 36°
2026-05-07 16:03 40.13449 33.00573 3134 ft 17 kts 36°
2026-05-07 16:03 40.13541 33.00661 3134 ft 16 kts 36°
2026-05-07 16:04 40.13643 33.00759 3133 ft 20 kts 37°
2026-05-07 16:04 40.13769 33.00881 3133 ft 24 kts 36°
2026-05-07 16:04 40.13900 33.01005 3133 ft 23 kts 36°
2026-05-07 16:04 40.14030 33.01080 3134 ft 19 kts 338°
2026-05-07 16:05 40.14075 33.01035 3134 ft 0 kts 313°
2026-05-07 16:06 40.14076 33.01034 3134 ft 1 kts 312°
2026-05-07 16:06 40.14090 33.01009 3135 ft 7 kts 302°
2026-05-07 16:06 40.14115 33.00930 3135 ft 12 kts 293°
2026-05-07 16:07 40.14167 33.00833 3133 ft 13 kts 308°
2026-05-07 16:07 40.14210 33.00732 3133 ft 13 kts 278°
2026-05-07 16:07 40.14163 33.00643 3131 ft 13 kts 217°
2026-05-07 16:07 40.14019 33.00506 3132 ft 55 kts 215°
2026-05-07 16:08 40.13521 33.00031 3133 ft 120 kts 216°
2026-05-07 16:08 40.12700 32.99254 3216 ft 165 kts 219°
2026-05-07 16:08 40.11738 32.98309 3632 ft 183 kts 219°
2026-05-07 16:08 40.10696 32.97269 4491 ft 181 kts 218°
2026-05-07 16:09 40.09722 32.96369 5512 ft 170 kts 217°
2026-05-07 16:09 40.08684 32.95412 5843 ft 196 kts 217°
2026-05-07 16:09 40.07515 32.94325 6031 ft 219 kts 217°
2026-05-07 16:09 40.06221 32.93115 6263 ft 238 kts 218°
2026-05-07 16:10 40.04839 32.91821 6721 ft 249 kts 217°
2026-05-07 16:10 40.03413 32.90484 7361 ft 253 kts 217°
2026-05-07 16:10 40.01806 32.89526 8071 ft 260 kts 193°
2026-05-07 16:10 39.99973 32.89399 8702 ft 271 kts 178°
2026-05-07 16:11 39.98712 32.89710 8867 ft 287 kts 157°
2026-05-07 16:11 39.97005 32.91095 9518 ft 293 kts 144°
2026-05-07 16:11 39.95336 32.92671 10168 ft 299 kts 144°
2026-05-07 16:11 39.93588 32.94288 10454 ft 320 kts 145°
2026-05-07 16:12 39.91696 32.96003 10654 ft 340 kts 146°
2026-05-07 16:12 39.89572 32.97473 10949 ft 354 kts 164°
2026-05-07 16:12 39.87118 32.97848 11574 ft 355 kts 184°
2026-05-07 16:12 39.84658 32.97615 12392 ft 356 kts 186°
2026-05-07 16:13 39.82167 32.97363 13059 ft 362 kts 186°
2026-05-07 16:13 39.79658 32.96976 13748 ft 365 kts 197°
2026-05-07 16:13 39.77366 32.95615 14443 ft 363 kts 217°
2026-05-07 16:13 39.75490 32.93413 15142 ft 364 kts 227°
2026-05-07 16:14 39.73730 32.91014 15775 ft 369 kts 229°
2026-05-07 16:14 39.71964 32.88569 16416 ft 374 kts 228°
2026-05-07 16:14 39.70158 32.86106 17058 ft 378 kts 228°
2026-05-07 16:14 39.68323 32.83642 17734 ft 382 kts 227°
2026-05-07 16:15 39.66452 32.81150 18385 ft 387 kts 227°
2026-05-07 16:15 39.64563 32.78640 18926 ft 391 kts 228°
2026-05-07 16:15 39.62652 32.76101 19484 ft 395 kts 228°
2026-05-07 16:15 39.60726 32.73542 20023 ft 399 kts 229°
2026-05-07 16:16 39.58778 32.70954 20555 ft 403 kts 229°
2026-05-07 16:16 39.56812 32.68345 21082 ft 406 kts 229°
2026-05-07 16:16 39.54849 32.65742 21590 ft 410 kts 230°
2026-05-07 16:16 39.52846 32.63088 22120 ft 414 kts 230°
2026-05-07 16:17 39.50826 32.60413 22621 ft 417 kts 230°
2026-05-07 16:17 39.48788 32.57717 23128 ft 421 kts 230°
2026-05-07 16:17 39.46701 32.54958 23625 ft 425 kts 230°
2026-05-07 16:17 39.44632 32.52204 24059 ft 427 kts 233°
2026-05-07 16:18 39.42991 32.49074 24448 ft 417 kts 251°
2026-05-07 16:18 39.41969 32.45629 24928 ft 415 kts 255°
2026-05-07 16:18 39.40979 32.42124 25332 ft 418 kts 255°
2026-05-07 16:18 39.39949 32.38602 25710 ft 421 kts 254°
2026-05-07 16:19 39.38885 32.35063 26118 ft 423 kts 253°
2026-05-07 16:19 39.37784 32.31512 26492 ft 426 kts 253°
2026-05-07 16:19 39.36664 32.27960 26879 ft 428 kts 253°
2026-05-07 16:19 39.35527 32.24372 27273 ft 430 kts 253°
2026-05-07 16:20 39.34393 32.20791 27615 ft 433 kts 253°
2026-05-07 16:20 39.33246 32.17166 27980 ft 435 kts 253°
2026-05-07 16:20 39.32115 32.13591 28342 ft 436 kts 253°
2026-05-07 16:20 39.30950 32.09904 28694 ft 439 kts 253°
2026-05-07 16:21 39.29793 32.06246 29026 ft 441 kts 253°
2026-05-07 16:21 39.28631 32.02575 29366 ft 443 kts 253°
2026-05-07 16:21 39.27480 31.98946 29787 ft 442 kts 253°
2026-05-07 16:21 39.26311 31.95269 30297 ft 440 kts 253°
2026-05-07 16:22 39.25155 31.91636 30741 ft 437 kts 253°
2026-05-07 16:22 39.24005 31.88022 31114 ft 436 kts 253°
2026-05-07 16:22 39.22852 31.84401 31449 ft 436 kts 253°
2026-05-07 16:22 39.21685 31.80795 31788 ft 437 kts 251°
2026-05-07 16:23 39.20346 31.77270 32172 ft 438 kts 249°
2026-05-07 16:23 39.18929 31.73788 32556 ft 437 kts 248°
2026-05-07 16:23 39.17490 31.70337 32893 ft 437 kts 248°
2026-05-07 16:23 39.16051 31.66895 33209 ft 437 kts 248°
2026-05-07 16:24 39.14615 31.63446 33560 ft 436 kts 248°
2026-05-07 16:24 39.13188 31.60003 33933 ft 434 kts 248°
2026-05-07 16:24 39.11790 31.56612 34189 ft 435 kts 249°
2026-05-07 16:25 39.08928 31.49638 34184 ft 445 kts 248°
2026-05-07 16:25 39.06013 31.42546 34180 ft 449 kts 248°
2026-05-07 16:26 39.03077 31.35434 34183 ft 450 kts 248°
2026-05-07 16:26 39.00139 31.28330 34177 ft 450 kts 248°
2026-05-07 16:27 38.97199 31.21237 34176 ft 449 kts 248°
2026-05-07 16:27 38.94264 31.14170 34182 ft 448 kts 248°
2026-05-07 16:28 38.91349 31.07167 34178 ft 447 kts 248°
2026-05-07 16:28 38.88422 31.00151 34173 ft 445 kts 248°
2026-05-07 16:29 38.85499 30.93160 34172 ft 443 kts 248°
2026-05-07 16:29 38.82589 30.86214 34177 ft 441 kts 248°
2026-05-07 16:30 38.79675 30.79275 34173 ft 440 kts 248°
2026-05-07 16:30 38.76773 30.72374 34174 ft 440 kts 248°
2026-05-07 16:31 38.73924 30.65509 34170 ft 437 kts 252°
2026-05-07 16:31 38.72317 30.58137 34174 ft 425 kts 267°
2026-05-07 16:32 38.72219 30.50652 34180 ft 420 kts 276°
2026-05-07 16:32 38.72421 30.43146 34182 ft 422 kts 276°
2026-05-07 16:33 38.72592 30.35625 34176 ft 423 kts 276°
2026-05-07 16:33 38.72734 30.28070 34173 ft 424 kts 276°
2026-05-07 16:34 38.72865 30.20504 34168 ft 425 kts 275°
2026-05-07 16:34 38.72992 30.12928 34168 ft 425 kts 275°
2026-05-07 16:35 38.73115 30.05363 34170 ft 425 kts 275°
2026-05-07 16:35 38.73019 29.97852 34159 ft 429 kts 267°
2026-05-07 16:36 38.72077 29.90303 34184 ft 429 kts 265°
2026-05-07 16:36 38.71098 29.82749 34163 ft 429 kts 265°
2026-05-07 16:37 38.70146 29.75204 34173 ft 429 kts 266°
2026-05-07 16:37 38.69202 29.67649 34161 ft 429 kts 266°
2026-05-07 16:38 38.68256 29.60108 34166 ft 429 kts 265°
2026-05-07 16:38 38.67308 29.52588 34171 ft 428 kts 265°
2026-05-07 16:39 38.66366 29.45051 34159 ft 428 kts 266°
2026-05-07 16:39 38.65615 29.37508 34162 ft 427 kts 268°
2026-05-07 16:40 38.64905 29.30011 34162 ft 427 kts 268°
2026-05-07 16:40 38.64157 29.22459 34161 ft 428 kts 267°
2026-05-07 16:41 38.63395 29.14907 34159 ft 428 kts 267°
2026-05-07 16:41 38.62635 29.07359 34157 ft 428 kts 268°
2026-05-07 16:42 38.61887 28.99811 34166 ft 427 kts 268°
2026-05-07 16:42 38.61137 28.92272 34155 ft 428 kts 268°
2026-05-07 16:43 38.60382 28.84768 34135 ft 419 kts 268°
2026-05-07 16:43 38.59639 28.77434 34144 ft 412 kts 268°
2026-05-07 16:44 38.58905 28.70195 34152 ft 410 kts 268°
2026-05-07 16:44 38.58537 28.66570 33439 ft 418 kts 268°
2026-05-07 16:44 38.58174 28.62916 33064 ft 409 kts 270°
2026-05-07 16:44 38.58056 28.59328 32589 ft 402 kts 275°
2026-05-07 16:45 38.58104 28.55775 32146 ft 397 kts 276°
2026-05-07 16:45 38.58162 28.52262 31708 ft 393 kts 275°
2026-05-07 16:45 38.58182 28.48780 31282 ft 390 kts 275°
2026-05-07 16:45 38.58181 28.45325 30868 ft 387 kts 275°
2026-05-07 16:46 38.58232 28.41913 30457 ft 383 kts 276°
2026-05-07 16:46 38.58328 28.38529 30009 ft 380 kts 277°
2026-05-07 16:46 38.58429 28.35163 29554 ft 376 kts 277°
2026-05-07 16:46 38.58519 28.31880 29138 ft 372 kts 276°
2026-05-07 16:47 38.58601 28.28557 28707 ft 368 kts 276°
2026-05-07 16:47 38.58673 28.25300 28275 ft 365 kts 275°
2026-05-07 16:47 38.58466 28.22068 27888 ft 366 kts 266°
2026-05-07 16:47 38.58016 28.18862 27467 ft 365 kts 265°
2026-05-07 16:48 38.57540 28.15727 27058 ft 362 kts 264°
2026-05-07 16:48 38.57074 28.12579 26641 ft 359 kts 265°
2026-05-07 16:48 38.56633 28.09455 26251 ft 356 kts 265°
2026-05-07 16:48 38.56208 28.06345 25860 ft 354 kts 265°
2026-05-07 16:49 38.55788 28.03249 25464 ft 352 kts 265°
2026-05-07 16:49 38.55371 28.00178 25072 ft 350 kts 265°
2026-05-07 16:49 38.54954 27.97123 24680 ft 348 kts 265°
2026-05-07 16:49 38.54538 27.94079 24302 ft 347 kts 265°
2026-05-07 16:50 38.54122 27.91038 23897 ft 347 kts 265°
2026-05-07 16:50 38.53707 27.88004 23472 ft 346 kts 265°
2026-05-07 16:50 38.53291 27.84985 23026 ft 344 kts 265°
2026-05-07 16:50 38.52877 27.81986 22631 ft 342 kts 265°
2026-05-07 16:51 38.52465 27.79007 22274 ft 339 kts 265°
2026-05-07 16:51 38.52055 27.76049 21881 ft 337 kts 265°
2026-05-07 16:51 38.51648 27.73109 21503 ft 335 kts 264°
2026-05-07 16:51 38.51248 27.70229 21130 ft 333 kts 264°
2026-05-07 16:52 38.50844 27.67326 20762 ft 331 kts 264°
2026-05-07 16:52 38.50442 27.64442 20393 ft 329 kts 264°
2026-05-07 16:52 38.50036 27.61532 20027 ft 328 kts 264°
2026-05-07 16:52 38.49642 27.58721 19793 ft 322 kts 265°
2026-05-07 16:53 38.49586 27.55952 19639 ft 305 kts 285°
2026-05-07 16:53 38.50311 27.53498 19529 ft 289 kts 304°
2026-05-07 16:53 38.51583 27.51541 19239 ft 288 kts 319°
2026-05-07 16:53 38.53220 27.50081 18940 ft 289 kts 335°
2026-05-07 16:54 38.55150 27.49263 18652 ft 297 kts 344°
2026-05-07 16:54 38.57199 27.48667 18254 ft 305 kts 346°
2026-05-07 16:54 38.59272 27.48092 17929 ft 303 kts 346°
2026-05-07 16:54 38.61330 27.47506 17562 ft 302 kts 345°
2026-05-07 16:55 38.63368 27.46912 17226 ft 299 kts 345°
2026-05-07 16:55 38.65390 27.46314 16860 ft 298 kts 345°
2026-05-07 16:55 38.67411 27.45712 16479 ft 298 kts 345°
2026-05-07 16:55 38.69426 27.45112 16134 ft 296 kts 345°
2026-05-07 16:56 38.71425 27.44515 15802 ft 294 kts 346°
2026-05-07 16:56 38.73411 27.43922 15475 ft 292 kts 346°
2026-05-07 16:56 38.76688 27.42943 14944 ft 289 kts 346°
2026-05-07 16:57 38.79104 27.41618 14497 ft 287 kts 321°
2026-05-07 16:57 38.80033 27.40381 14293 ft 286 kts 307°
2026-05-07 16:57 38.80900 27.38093 14045 ft 288 kts 289°
2026-05-07 16:57 38.81128 27.35532 13795 ft 295 kts 268°
2026-05-07 16:58 38.80745 27.32920 13559 ft 298 kts 261°
2026-05-07 16:58 38.80129 27.30363 13273 ft 305 kts 245°
2026-05-07 16:58 38.78764 27.28259 13017 ft 313 kts 220°
2026-05-07 16:58 38.76785 27.27029 12544 ft 325 kts 192°
2026-05-07 16:59 38.74533 27.27053 12229 ft 325 kts 169°
2026-05-07 16:59 38.72367 27.27709 11897 ft 323 kts 166°
2026-05-07 16:59 38.70189 27.28417 11554 ft 323 kts 166°
2026-05-07 16:59 38.68012 27.29105 11223 ft 321 kts 166°
2026-05-07 17:00 38.65856 27.29772 10919 ft 318 kts 167°
2026-05-07 17:00 38.63708 27.30422 10609 ft 316 kts 166°
2026-05-07 17:00 38.61571 27.31063 10311 ft 314 kts 166°
2026-05-07 17:00 38.59463 27.31695 10160 ft 307 kts 166°
2026-05-07 17:01 38.57404 27.32311 9999 ft 300 kts 166°
2026-05-07 17:01 38.55403 27.32910 9751 ft 296 kts 166°
2026-05-07 17:01 38.53388 27.33514 9459 ft 294 kts 166°
2026-05-07 17:01 38.51404 27.34106 9167 ft 292 kts 168°
2026-05-07 17:02 38.49420 27.34188 9034 ft 283 kts 193°
2026-05-07 17:02 38.47673 27.33194 8874 ft 273 kts 220°
2026-05-07 17:02 38.46422 27.31429 8589 ft 266 kts 241°
2026-05-07 17:02 38.45709 27.29285 8343 ft 260 kts 257°
2026-05-07 17:03 38.45280 27.27074 8196 ft 253 kts 259°
2026-05-07 17:03 38.45079 27.24891 8041 ft 243 kts 281°
2026-05-07 17:03 38.45658 27.22955 7918 ft 231 kts 308°
2026-05-07 17:03 38.46787 27.21570 7701 ft 231 kts 330°
2026-05-07 17:04 38.48286 27.20791 7494 ft 235 kts 345°
2026-05-07 17:04 38.49900 27.20289 7265 ft 242 kts 347°
2026-05-07 17:04 38.51556 27.19822 6998 ft 244 kts 348°
2026-05-07 17:04 38.53209 27.19348 6719 ft 244 kts 348°
2026-05-07 17:05 38.54845 27.18771 6461 ft 245 kts 335°
2026-05-07 17:05 38.56137 27.17370 6171 ft 248 kts 304°
2026-05-07 17:05 38.56693 27.15279 5889 ft 253 kts 274°
2026-05-07 17:05 38.56510 27.13043 5604 ft 255 kts 259°
2026-05-07 17:06 38.56076 27.10839 5285 ft 257 kts 249°
2026-05-07 17:06 38.55001 27.09035 4985 ft 260 kts 214°
2026-05-07 17:06 38.53336 27.08415 4916 ft 247 kts 177°
2026-05-07 17:06 38.51691 27.08794 4759 ft 235 kts 165°
2026-05-07 17:07 38.50142 27.09333 4460 ft 226 kts 165°
2026-05-07 17:07 38.48635 27.09826 4154 ft 220 kts 167°
2026-05-07 17:07 38.47178 27.10274 3871 ft 211 kts 167°
2026-05-07 17:07 38.45786 27.10699 3579 ft 198 kts 167°
2026-05-07 17:08 38.44497 27.11089 3341 ft 181 kts 168°
2026-05-07 17:08 38.43340 27.11438 3101 ft 161 kts 168°
2026-05-07 17:08 38.42277 27.11758 2885 ft 157 kts 168°
2026-05-07 17:08 38.41224 27.12076 2684 ft 154 kts 168°
2026-05-07 17:09 38.40173 27.12393 2453 ft 155 kts 168°
2026-05-07 17:09 38.39139 27.12706 2247 ft 151 kts 168°
2026-05-07 17:09 38.38111 27.13016 2039 ft 152 kts 169°
2026-05-07 17:09 38.37085 27.13327 1843 ft 151 kts 168°
2026-05-07 17:10 38.36078 27.13632 1631 ft 150 kts 168°
2026-05-07 17:10 38.35047 27.13943 1413 ft 150 kts 168°
2026-05-07 17:10 38.34035 27.14249 1189 ft 149 kts 168°
2026-05-07 17:10 38.33050 27.14557 965 ft 140 kts 167°
2026-05-07 17:11 38.32118 27.14853 718 ft 140 kts 169°
2026-05-07 17:11 38.31161 27.15126 536 ft 142 kts 168°
2026-05-07 17:11 38.30191 27.15418 415 ft 141 kts 166°
2026-05-07 17:11 38.29361 27.15658 413 ft 101 kts 165°
2026-05-07 17:12 38.28871 27.15772 411 ft 49 kts 187°
2026-05-07 17:12 38.28669 27.15703 418 ft 23 kts 197°
2026-05-07 17:12 38.28576 27.15578 418 ft 21 kts 256°
2026-05-07 17:12 38.28581 27.15433 416 ft 6 kts 338°
2026-05-07 17:13 38.28621 27.15416 415 ft 6 kts 344°
2026-05-07 17:13 38.28661 27.15403 412 ft 6 kts 347°
2026-05-07 17:13 38.28700 27.15392 411 ft 6 kts 347°
2026-05-07 17:13 38.28755 27.15376 412 ft 12 kts 347°
2026-05-07 17:14 38.28860 27.15342 412 ft 17 kts 345°
2026-05-07 17:14 38.28982 27.15305 408 ft 19 kts 346°
2026-05-07 17:14 38.29008 27.15274 410 ft 0 kts 281°
2026-05-07 17:14 38.29010 27.15263 410 ft 1 kts 281°
2026-05-07 17:15 38.29011 27.15239 410 ft 5 kts 267°
2026-05-07 17:15 38.29003 27.15184 410 ft 7 kts 257°
2026-05-07 17:15 38.28996 27.15147 410 ft 0 kts 256°